EW4676 Weather Reports


Display with metric or nautical units.
time (UTC)temp
F
wind
direction
speed
MPH
gust
MPH
rain 1hr
in
rain 24hr
in
rain mn
in
humidity
%
barometer
mb
20260831112028 80 172 3.0 9.0 0.00 0.00 0.00 66 1014.9
20260831111522 80 197 3.0 9.0 0.00 0.00 0.00 66 1014.8
20260831111015 80 209 3.0 8.0 0.00 0.00 0.00 66 1014.8
20260831110507 80 237 3.0 10.0 0.00 0.00 0.00 66 1014.7
20260831105958 80 187 4.0 10.0 0.00 0.00 0.00 65 1014.7
20260831105947 80 199 3.0 9.0 0.00 0.00 0.00 65 1014.8
20260831104945 80 174 3.0 9.0 0.00 0.00 0.00 65 1014.8
20260831104436 80 221 4.0 10.0 0.00 0.00 0.00 65 1014.8
20260831103927 80 178 4.0 10.0 0.00 0.00 0.00 64 1014.7
20260831103416 80 155 3.0 9.0 0.00 0.00 0.00 64 1014.7
20260831102908 80 212 3.0 8.0 0.00 0.00 0.00 64 1014.7
20260831102405 81 267 3.0 8.0 0.00 0.00 0.00 64 1014.8
20260831101906 81 267 2.0 9.0 0.00 0.00 0.00 63 1014.6
20260831101901 81 267 3.0 9.0 0.00 0.00 0.00 63 1014.7
20260831100901 81 170 3.0 9.0 0.00 0.00 0.00 63 1014.7
20260831100400 81 201 3.0 9.0 0.00 0.00 0.00 63 1014.6
20260831095859 81 203 3.0 9.0 0.00 0.00 0.00 63 1014.6
20260831095400 81 199 3.0 9.0 0.00 0.00 0.00 62 1014.6
20260831094851 81 224 3.0 9.0 0.00 0.00 0.00 62 1014.6
20260831094841 81 157 3.0 9.0 0.00 0.00 0.00 62 1014.7
20260831093831 81 162 4.0 9.0 0.00 0.00 0.00 62 1014.7
20260831093320 82 184 3.0 9.0 0.00 0.00 0.00 61 1014.7
20260831092811 82 199 2.0 9.0 0.00 0.00 0.00 61 1014.6
20260831092258 82 173 3.0 8.0 0.00 0.00 0.00 61 1014.6
20260831091749 82 211 3.0 8.0 0.00 0.00 0.00 61 1014.6
20260831091238 82 180 4.0 9.0 0.00 0.00 0.00 60 1014.6
20260831091230 82 161 4.0 10.0 0.00 0.00 0.00 60 1014.5
20260831090218 82 185 4.0 10.0 0.00 0.00 0.00 59 1014.4
20260831085709 82 170 4.0 7.0 0.00 0.00 0.00 59 1014.4
20260831085158 82 195 3.0 7.0 0.00 0.00 0.00 58 1014.4
20260831084649 82 188 3.0 7.0 0.00 0.00 0.00 58 1014.4
20260831084138 82 204 3.0 7.0 0.00 0.00 0.00 58 1014.4
20260831083628 82 224 2.0 8.0 0.00 0.00 0.00 57 1014.4
20260831083118 82 207 3.0 8.0 0.00 0.00 0.00 57 1014.3
20260831082608 82 235 3.0 8.0 0.00 0.00 0.00 56 1014.2
20260831082058 83 224 3.0 9.0 0.00 0.00 0.00 56 1014.3
20260831081548 83 197 3.0 10.0 0.00 0.00 0.00 56 1014.3
20260831081038 83 222 3.0 10.0 0.00 0.00 0.00 55 1014.3
20260831080520 83 211 2.0 9.0 0.00 0.00 0.00 55 1014.3
20260831080010 83 249 3.0 11.0 0.00 0.00 0.00 54 1014.3
20260831075500 83 262 3.0 11.0 0.00 0.00 0.00 54 1014.3
20260831074950 83 164 3.0 10.0 0.00 0.00 0.00 53 1014.2
20260831074940 84 206 3.0 10.0 0.00 0.00 0.00 53 1014.2
20260831073928 84 170 3.0 12.0 0.00 0.00 0.00 52 1014.2
20260831073419 84 192 4.0 15.0 0.00 0.00 0.00 52 1014.3
20260831073409 84 184 5.0 15.0 0.00 0.00 0.00 52 1014.2
20260831072358 84 170 5.0 15.0 0.00 0.00 0.00 51 1014.1
20260831071846 85 207 5.0 15.0 0.00 0.00 0.00 50 1014.2
20260831071336 85 200 5.0 12.0 0.00 0.00 0.00 50 1014.1
20260831070826 85 238 5.0 12.0 0.00 0.00 0.00 49 1014.1
20260831070316 85 234 5.0 14.0 0.00 0.00 0.00 49 1014.2
20260831065806 85 188 5.0 14.0 0.00 0.00 0.00 48 1014.2
20260831065256 86 174 6.0 15.0 0.00 0.00 0.00 48 1014.3
20260831064747 86 189 7.0 15.0 0.00 0.00 0.00 47 1014.2
20260831064236 86 175 7.0 17.0 0.00 0.00 0.00 47 1014.3
20260831063735 86 195 6.0 15.0 0.00 0.00 0.00 47 1014.3
20260831063225 86 154 6.0 15.0 0.00 0.00 0.00 46 1014.2
20260831062716 86 168 5.0 12.0 0.00 0.00 0.00 46 1014.2
20260831062707 86 201 4.0 12.0 0.00 0.00 0.00 46 1014.2
20260831061656 87 159 4.0 10.0 0.00 0.00 0.00 45 1014.2
20260831061146 87 145 4.0 10.0 0.00 0.00 0.00 45 1014.2
20260831060636 87 195 3.0 11.0 0.00 0.00 0.00 45 1014.2
20260831060126 87 143 4.0 11.0 0.00 0.00 0.00 45 1014.2
20260831055614 87 160 4.0 11.0 0.00 0.00 0.00 45 1014.3
20260831055104 87 165 4.0 8.0 0.00 0.00 0.00 45 1014.3
20260831054604 87 139 3.0 8.0 0.00 0.00 0.00 45 1014.4
20260831054054 87 139 3.0 6.0 0.00 0.00 0.00 45 1014.3
20260831053545 87 139 3.0 10.0 0.00 0.00 0.00 45 1014.3
20260831053032 87 182 3.0 10.0 0.00 0.00 0.00 45 1014.3
20260831052522 88 153 3.0 8.0 0.00 0.00 0.00 45 1014.3
20260831052015 88 171 4.0 8.0 0.00 0.00 0.00 44 1014.2
20260831051513 88 138 3.0 8.0 0.00 0.00 0.00 44 1014.1
20260831051016 88 176 2.0 8.0 0.00 0.00 0.00 44 1014.1
20260831051012 88 153 3.0 9.0 0.00 0.00 0.00 44 1014.1
20260831050009 88 185 3.0 9.0 0.00 0.00 0.00 44 1014.0
20260831045510 88 175 3.0 6.0 0.00 0.00 0.00 44 1014.0
20260831045001 88 181 2.0 8.0 0.00 0.00 0.00 44 1014.0
20260831044454 89 170 3.0 8.0 0.00 0.00 0.00 44 1014.0
20260831043950 89 149 3.0 7.0 0.00 0.00 0.00 44 1014.0
20260831043443 89 145 3.0 8.0 0.00 0.00 0.00 43 1014.0
20260831042936 89 157 3.0 8.0 0.00 0.00 0.00 44 1013.9
20260831042429 89 153 4.0 9.0 0.00 0.00 0.00 43 1013.9
20260831041922 89 122 3.0 9.0 0.00 0.00 0.00 43 1013.9
20260831041414 89 128 3.0 8.0 0.00 0.00 0.00 43 1013.9
20260831040906 89 158 3.0 8.0 0.00 0.00 0.00 43 1013.9
20260831040859 90 147 3.0 7.0 0.00 0.00 0.00 43 1013.8
20260831035846 90 169 3.0 7.0 0.00 0.00 0.00 42 1013.9
20260831035340 90 143 3.0 7.0 0.00 0.00 0.00 42 1013.9
20260831034830 90 126 3.0 7.0 0.00 0.00 0.00 42 1013.8
20260831034320 90 138 3.0 7.0 0.00 0.00 0.00 42 1013.8
20260831033811 90 128 3.0 7.0 0.00 0.00 0.00 42 1013.8
20260831033301 91 145 3.0 7.0 0.00 0.00 0.00 41 1013.7
20260831033241 91 136 3.0 7.0 0.00 0.00 0.00 41 1013.6
20260831032845 91 151 3.0 7.0 0.00 0.00 0.00 41 1013.7
20260831031738 91 143 2.0 7.0 0.00 0.00 0.00 41 1013.6
20260831031733 91 150 3.0 7.0 0.00 0.00 0.00 41 1013.6
20260831030722 92 143 3.0 6.0 0.00 0.00 0.00 40 1013.6
20260831030212 92 149 3.0 9.0 0.00 0.00 0.00 40 1013.6
20260831025702 92 151 2.0 7.0 0.00 0.00 0.00 40 1013.6
20260831025152 92 149 3.0 7.0 0.00 0.00 0.00 40 1013.5
20260831024645 92 139 3.0 8.0 0.00 0.00 0.00 40 1013.4
20260831024142 92 105 3.0 8.0 0.00 0.00 0.00 40 1013.3
20260831023632 92 142 3.0 7.0 0.00 0.00 0.00 40 1013.3
20260831023122 92 157 2.0 7.0 0.00 0.00 0.00 40 1013.2
20260831023112 93 126 2.0 6.0 0.00 0.00 0.00 39 1013.1
20260831022102 93 125 2.0 5.0 0.00 0.00 0.00 39 1013.0
20260831022052 93 136 2.0 5.0 0.00 0.00 0.00 39 1013.0
20260831021042 93 135 2.0 5.0 0.00 0.00 0.00 38 1012.8
20260831020533 93 155 2.0 6.0 0.00 0.00 0.00 38 1012.8
20260831020022 94 121 2.0 6.0 0.00 0.00 0.00 38 1012.7
20260831015612 94 141 3.0 6.0 0.00 0.00 0.00 37 1012.7
20260831015110 94 146 4.0 8.0 0.00 0.00 0.00 37 1012.6
20260831013957 94 153 3.0 10.0 0.00 0.00 0.00 36 1012.5
20260831013953 94 154 4.0 8.0 0.00 0.00 0.00 36 1012.5
20260831012954 94 141 3.0 10.0 0.00 0.00 0.00 36 1012.4
20260831012452 94 153 4.0 11.0 0.00 0.00 0.00 35 1012.3
20260831011950 95 172 4.0 11.0 0.00 0.00 0.00 35 1012.2
20260831011450 95 205 3.0 11.0 0.00 0.00 0.00 34 1012.2
20260831010940 95 157 2.0 11.0 0.00 0.00 0.00 34 1012.2
20260831010430 95 136 3.0 9.0 0.00 0.00 0.00 33 1012.2
20260831005920 96 147 4.0 9.0 0.00 0.00 0.00 33 1012.2
20260831005421 96 138 3.0 8.0 0.00 0.00 0.00 33 1012.2
20260831005411 96 170 3.0 7.0 0.00 0.00 0.00 32 1012.1
20260831004400 96 161 4.0 12.0 0.00 0.00 0.00 32 1012.1
20260831003850 96 164 4.0 12.0 0.00 0.00 0.00 31 1012.1
20260831003346 96 138 4.0 9.0 0.00 0.00 0.00 32 1012.0
20260831002844 96 140 5.0 11.0 0.00 0.00 0.00 31 1012.0
20260831002346 97 157 6.0 11.0 0.00 0.00 0.00 31 1012.0
20260831001844 97 145 6.0 12.0 0.00 0.00 0.00 31 1012.0
20260831001330 97 159 7.0 12.0 0.00 0.00 0.00 30 1012.0
20260831001321 97 166 6.0 15.0 0.00 0.00 0.00 29 1012.1
20260831000811 97 112 6.0 15.0 0.00 0.00 0.00 29 1012.2
20260830235759 97 157 6.0 15.0 0.00 0.00 0.00 29 1012.2
20260830235749 98 126 5.0 14.0 0.00 0.00 0.00 30 1012.3
20260830234737 98 172 3.0 11.0 0.00 0.00 0.00 30 1012.3
20260830234226 98 161 5.0 14.0 0.00 0.00 0.00 30 1012.2
20260830234215 98 157 8.0 14.0 0.00 0.00 0.00 29 1012.3
20260830233204 98 131 8.0 15.0 0.00 0.00 0.00 29 1012.3
20260830232655 99 156 6.0 15.0 0.00 0.00 0.00 29 1012.3
20260830232144 99 136 4.0 13.0 0.00 0.00 0.00 30 1012.2
20260830231626 99 152 6.0 13.0 0.00 0.00 0.00 30 1012.2
20260830231609 99 159 5.0 14.0 0.00 0.00 0.00 30 1012.3
20260830231212 99 147 7.0 14.0 0.00 0.00 0.00 29 1012.2
20260830230056 99 147 4.0 10.0 0.00 0.00 0.00 30 1012.4
20260830225546 99 139 6.0 12.0 0.00 0.00 0.00 29 1012.3
20260830225527 99 191 6.0 15.0 0.00 0.00 0.00 28 1012.4
20260830225131 99 199 6.0 12.0 0.00 0.00 0.00 28 1012.4
20260830224016 99 151 6.0 15.0 0.00 0.00 0.00 27 1012.4
20260830223506 99 197 7.0 16.0 0.00 0.00 0.00 28 1012.5
20260830222955 99 183 6.0 16.0 0.00 0.00 0.00 28 1012.5
20260830222446 100 134 6.0 15.0 0.00 0.00 0.00 28 1012.5
20260830221931 99 97 6.0 15.0 0.00 0.00 0.00 28 1012.5
20260830221430 100 151 7.0 15.0 0.00 0.00 0.00 28 1012.5
20260830220920 100 114 5.0 15.0 0.00 0.00 0.00 27 1012.5
20260830220410 100 145 5.0 15.0 0.00 0.00 0.00 27 1012.6
20260830215900 100 211 7.0 15.0 0.00 0.00 0.00 27 1012.6
20260830215350 101 262 5.0 15.0 0.00 0.00 0.00 26 1012.5
20260830214840 101 230 4.0 12.0 0.00 0.00 0.00 27 1012.5
20260830214332 101 186 4.0 10.0 0.00 0.00 0.00 26 1012.5
20260830213822 102 142 5.0 12.0 0.00 0.00 0.00 27 1012.6
20260830213317 102 132 6.0 12.0 0.00 0.00 0.00 26 1012.6
20260830212814 102 153 5.0 12.0 0.00 0.00 0.00 25 1012.7
20260830212309 102 226 5.0 16.0 0.00 0.00 0.00 27 1012.7
20260830211810 101 164 6.0 16.0 0.00 0.00 0.00 28 1012.8
20260830211804 101 135 5.0 13.0 0.00 0.00 0.00 27 1012.8
20260830210752 101 121 8.0 18.0 0.00 0.00 0.00 26 1012.9
20260830210242 101 197 8.0 18.0 0.00 0.00 0.00 27 1013.0
20260830205738 102 97 7.0 16.0 0.00 0.00 0.00 27 1013.1
20260830205232 102 188 6.0 13.0 0.00 0.00 0.00 26 1013.1
20260830204724 102 168 6.0 16.0 0.00 0.00 0.00 27 1013.1
20260830204217 101 216 7.0 16.0 0.00 0.00 0.00 27 1013.3
20260830203701 101 184 7.0 16.0 0.00 0.00 0.00 28 1013.3
20260830203203 101 166 6.0 16.0 0.00 0.00 0.00 28 1013.5
20260830203159 101 145 6.0 16.0 0.00 0.00 0.00 27 1013.4
20260830202647 100 111 7.0 16.0 0.00 0.00 0.00 28 1013.5
20260830202140 101 123 7.0 16.0 0.00 0.00 0.00 28 1013.6
20260830201132 101 180 6.0 16.0 0.00 0.00 0.00 28 1013.7
20260830201126 102 218 5.0 11.0 0.00 0.00 0.00 28 1013.6
20260830200122 102 218 6.0 13.0 0.00 0.00 0.00 28 1013.8
20260830195621 102 193 6.0 13.0 0.00 0.00 0.00 29 1013.8
20260830195117 101 129 5.0 14.0 0.00 0.00 0.00 29 1013.9
20260830194613 100 93 6.0 14.0 0.00 0.00 0.00 29 1013.9
20260830194058 100 94 6.0 15.0 0.00 0.00 0.00 29 1014.0
20260830193545 100 170 5.0 15.0 0.00 0.00 0.00 30 1014.1
20260830193039 101 253 5.0 15.0 0.00 0.00 0.00 30 1014.2
20260830192535 100 138 6.0 15.0 0.00 0.00 0.00 29 1014.4
20260830192027 101 159 6.0 14.0 0.00 0.00 0.00 29 1014.4
20260830191520 101 93 7.0 15.0 0.00 0.00 0.00 30 1014.4
20260830191015 101 164 6.0 14.0 0.00 0.00 0.00 30 1014.6
20260830190507 100 167 6.0 11.0 0.00 0.00 0.00 30 1014.5
20260830190500 100 206 6.0 12.0 0.00 0.00 0.00 31 1014.6
20260830185449 100 202 7.0 14.0 0.00 0.00 0.00 32 1014.7
20260830184942 99 193 9.0 18.0 0.00 0.00 0.00 32 1014.8
20260830184431 100 159 8.0 16.0 0.00 0.00 0.00 30 1014.8
20260830183922 100 169 8.0 14.0 0.00 0.00 0.00 33 1014.8
20260830183411 99 176 8.0 14.0 0.00 0.00 0.00 32 1015.0
20260830182901 99 178 8.0 17.0 0.00 0.00 0.00 32 1015.0
20260830182853 100 157 7.0 17.0 0.00 0.00 0.00 32 1015.1
20260830181840 99 148 7.0 15.0 0.00 0.00 0.00 33 1015.1
20260830181331 98 157 7.0 14.0 0.00 0.00 0.00 33 1015.2
20260830181322 99 154 7.0 15.0 0.00 0.00 0.00 32 1015.3
20260830180311 99 225 6.0 14.0 0.00 0.00 0.00 33 1015.4
20260830175802 99 123 6.0 17.0 0.00 0.00 0.00 33 1015.5
20260830175251 99 115 6.0 17.0 0.00 0.00 0.00 33 1015.5
20260830174734 98 169 7.0 16.0 0.00 0.00 0.00 34 1015.6
20260830174724 98 143 7.0 16.0 0.00 0.00 0.00 33 1015.7
20260830173713 98 224 5.0 13.0 0.00 0.00 0.00 36 1015.8
20260830173203 98 185 6.0 15.0 0.00 0.00 0.00 35 1015.8
20260830172653 97 164 6.0 15.0 0.00 0.00 0.00 34 1015.9
20260830172143 98 230 6.0 14.0 0.00 0.00 0.00 36 1016.1
20260830171633 97 151 5.0 14.0 0.00 0.00 0.00 35 1016.2
20260830171123 98 153 5.0 16.0 0.00 0.00 0.00 35 1016.2
20260830170613 98 165 5.0 16.0 0.00 0.00 0.00 36 1016.2
20260830170055 97 145 4.0 13.0 0.00 0.00 0.00 36 1016.3
20260830165545 96 188 6.0 15.0 0.00 0.00 0.00 39 1016.4
20260830165037 96 199 6.0 15.0 0.00 0.00 0.00 39 1016.5
20260830164525 97 174 5.0 11.0 0.00 0.00 0.00 40 1016.5
20260830164507 96 246 5.0 15.0 0.00 0.00 0.00 41 1016.6
20260830164112 95 195 5.0 15.0 0.00 0.00 0.00 41 1016.6
20260830163457 95 201 5.0 11.0 0.00 0.00 0.00 42 1016.7
20260830162445 95 213 4.0 11.0 0.00 0.00 0.00 42 1016.6
20260830161936 95 125 4.0 11.0 0.00 0.00 0.00 43 1016.7
20260830161424 94 213 5.0 12.0 0.00 0.00 0.00 44 1016.8
20260830160908 93 201 5.0 12.0 0.00 0.00 0.00 45 1016.7
20260830160358 94 168 4.0 11.0 0.00 0.00 0.00 44 1016.8
20260830155847 94 213 5.0 11.0 0.00 0.00 0.00 46 1016.7
20260830155338 93 221 5.0 13.0 0.00 0.00 0.00 46 1016.8
20260830154827 93 158 5.0 12.0 0.00 0.00 0.00 46 1016.8
20260830154317 92 208 4.0 10.0 0.00 0.00 0.00 47 1016.7
20260830153807 92 204 3.0 9.0 0.00 0.00 0.00 48 1016.7
20260830153258 92 257 3.0 9.0 0.00 0.00 0.00 51 1016.7
20260830152747 91 190 3.0 9.0 0.00 0.00 0.00 51 1016.8
20260830152238 91 249 3.0 9.0 0.00 0.00 0.00 52 1016.6
20260830151727 90 169 3.0 9.0 0.00 0.00 0.00 54 1016.7
20260830151218 89 247 2.0 7.0 0.00 0.00 0.00 55 1016.7
20260830150707 89 186 3.0 7.0 0.00 0.00 0.00 54 1016.7
20260830150157 88 173 3.0 9.0 0.00 0.00 0.00 54 1016.7
20260830145647 88 224 3.0 10.0 0.00 0.00 0.00 55 1016.7
20260830145138 88 228 3.0 10.0 0.00 0.00 0.00 56 1016.6
20260830144627 87 203 2.0 7.0 0.00 0.00 0.00 57 1016.6
20260830144118 87 227 3.0 10.0 0.00 0.00 0.00 59 1016.6
20260830144108 86 272 3.0 10.0 0.00 0.00 0.00 58 1016.6
20260830143559 86 199 3.0 9.0 0.00 0.00 0.00 59 1016.6
20260830142548 86 222 3.0 9.0 0.00 0.00 0.00 59 1016.7
20260830142038 85 216 2.0 9.0 0.00 0.00 0.00 60 1016.6
20260830141527 85 213 2.0 6.0 0.00 0.00 0.00 61 1016.7
20260830141018 84 193 2.0 6.0 0.00 0.00 0.00 62 1016.7
20260830140508 84 236 2.0 7.0 0.00 0.00 0.00 62 1016.7
20260830135957 84 224 3.0 7.0 0.00 0.00 0.00 62 1016.7
20260830135447 83 164 2.0 7.0 0.00 0.00 0.00 64 1016.6
20260830135439 83 183 1.0 6.0 0.00 0.00 0.00 65 1016.6
20260830134928 82 235 2.0 6.0 0.00 0.00 0.00 67 1016.5
20260830133915 81 211 2.0 7.0 0.00 0.00 0.00 68 1016.6
20260830133405 80 192 2.0 8.0 0.00 0.00 0.00 69 1016.6
20260830132856 80 203 2.0 8.0 0.00 0.00 0.00 70 1016.5
20260830132345 79 188 2.0 6.0 0.00 0.00 0.00 70 1016.5
20260830131836 79 209 2.0 5.0 0.00 0.00 0.00 70 1016.4
20260830131402 79 204 1.0 5.0 0.00 0.00 0.00 70 1016.3
20260830131325 79 235 1.0 5.0 0.00 0.00 0.00 70 1016.3
20260830131255 79 197 1.0 4.0 0.00 0.00 0.00 70 1016.2
20260830125743 79 195 1.0 3.0 0.00 0.00 0.00 70 1016.1
20260830125225 79 175 1.0 6.0 0.00 0.00 0.00 70 1016.1
20260830124715 79 172 1.0 6.0 0.00 0.00 0.00 70 1016.1
20260830124205 79 219 1.0 4.0 0.00 0.00 0.00 70 1015.9
20260830123655 79 167 0.0 4.0 0.00 0.00 0.00 69 1015.9
20260830123145 79 197 0.0 4.0 0.00 0.00 0.00 69 1015.9
20260830122635 79 186 1.0 4.0 0.00 0.00 0.00 69 1015.7
20260830122117 79 190 1.0 4.0 0.00 0.00 0.00 68 1015.7
20260830121559 79 187 1.0 4.0 0.00 0.00 0.00 68 1015.6
20260830121049 79 197 1.0 3.0 0.00 0.00 0.00 68 1015.5
20260830121027 79 206 1.0 4.0 0.00 0.00 0.00 67 1015.5
20260830120631 79 205 1.0 3.0 0.00 0.00 0.00 67 1015.5
20260830115517 80 227 1.0 4.0 0.00 0.00 0.00 67 1015.4
20260830115009 80 189 1.0 4.0 0.00 0.00 0.00 67 1015.3
20260830114502 80 198 2.0 7.0 0.00 0.00 0.00 67 1015.2
20260830113951 80 174 2.0 7.0 0.00 0.00 0.00 67 1015.1
20260830113445 80 182 2.0 6.0 0.00 0.00 0.00 66 1015.1
20260830112933 80 201 2.0 7.0 0.00 0.00 0.00 66 1015.1
20260830112926 80 207 2.0 7.0 0.00 0.00 0.00 66 1015.1